Location: Proctor
(47.8934°N, 114.3048°W)
Time: 01:40:02
(UTC+00:00)

Vanguard 2 Rocket - Visible Passes

Search period start: 13 June 2024 00:00
Search period end: 23 June 2024 00:00
Orbit: 555 x 3304 km, 32.9° (Epoch: 12 June)

Date Brightness Start Highest point End Pass type
(mag) Time Alt. Az. Time Alt. Az. Time Alt. Az.
13 Jun 10.7 09:35:51 10° SSE 09:42:48 13° SE 09:49:08 10° ESE visible
14 Jun 10.3 10:39:56 10° SSW 10:53:41 25° SSE 11:04:40 10° ESE visible
15 Jun 10.5 09:38:11 10° S 09:50:03 19° SE 10:00:22 10° ESE visible
16 Jun 10.7 08:38:37 10° SSE 08:46:30 14° SE 08:53:58 10° ESE visible
16 Jun 10.2 10:45:16 10° SSW 11:01:02 31° SSE 11:13:27 10° ESE visible
17 Jun 10.3 09:43:54 12° SSW 09:57:12 26° SSE 10:09:44 10° E visible
18 Jun 10.5 08:44:17 14° S 08:53:28 20° SE 09:04:52 10° ESE visible
18 Jun 10.0 10:51:14 10° SW 11:08:20 37° SSE 11:21:50 10° E visible
19 Jun 10.6 07:44:37 12° SSE 07:50:00 14° SE 07:57:37 10° ESE visible
19 Jun 10.2 09:50:06 14° SSW 10:04:18 32° SSE 10:18:21 10° E visible
20 Jun 10.3 08:50:22 17° S 09:00:22 26° SE 09:14:03 10° E visible
20 Jun 9.9 10:57:39 10° SW 11:15:36 43° SSE 11:29:54 10° ESE visible
21 Jun 10.3 07:50:34 17° SSE 07:56:43 20° SE 08:08:29 10° E visible
21 Jun 10.0 09:56:02 14° SSW 10:11:23 38° SSE 10:26:33 10° E visible
22 Jun 10.5 06:50:42 12° SE 06:53:25 13° SE 07:00:02 10° ESE visible
22 Jun 10.1 08:56:10 19° SSW 09:07:15 33° SSE 09:22:32 10° E visible
